Regional Weather Roundup
Issued by NWS

Home | Current Version | Previous Version | Text Only | Print | Product List | Glossary On
Versions: 1 2 3 4 5 6 7 8 9 10 11 12 13 14 15 16 17 18 19 20 21 22 23 24 25 26 27
000
ASPQ40 PGUM 250812
RWRPQ
WEATHER ROUNDUP FOR THE MARIANAS AND MICRONESIA
NATIONAL WEATHER SERVICE TIYAN GU
600 PM CHST TUE JUL 25 2017

GUZ001>004-250900-
MARIANA ISLANDS-

CITY           SKY/WX    TMP DP  RH WIND       PRES   REMARKS
GUAM AIRPORT   SUNNY     86  77  74 S6        29.82R HX  97
ANDERSEN AFB   MOSUNNY   84  75  74 S9        29.83R HX  92
ROTA AIRPORT   MOSUNNY   84  77  79 S10       29.82R HX  94
TINIAN AP      MOSUNNY   84  75  74 S7        29.79R HX  92
SAIPAN AP      MOSUNNY   90  77  66 S8        29.81R HX 102

$$

PMZ161-250900-
REPUBLIC OF PALAU-

CITY           SKY/WX    TMP DP  RH WIND       PRES   REMARKS
KOROR AP       RAIN      75  73  94 W15G23    29.77R
KOROR WSO      HVY RAIN  77  75  94 W17       29.79R

$$

PMZ171>174-250900-
FEDERATED STATES OF MICRONESIA-

CITY           SKY/WX    TMP DP  RH WIND       PRES   REMARKS
YAP AIRPORT    PTSUNNY   84  77  79 VRB6      29.73R HX  94
CHUUK AP       CLOUDY    81  75  83 VRB3      29.78R
POHNPEI AP     NOT AVBL
POHNPEI WSO    CLOUDY    81  79  94 VRB3      29.82R
KOSRAE AP      NOT AVBL

$$

PMZ181-250900-
REPUBLIC OF THE MARSHALL ISLANDS-

CITY           SKY/WX    TMP DP  RH WIND       PRES   REMARKS
KWAJALEIN AP   CLEAR     84  75  74 E12       29.81R HX  92
MAJURO AP      NOT AVBL
MAJURO WSO     MOCLDY    84  77  79 E10       29.79R HX  94

$$





USA.gov is the U.S. government's official web portal to all federal, state and local government web resources and services.